Fort Eustis, VA

7:18 PM EST on November 20, 2019 (GMT -0500)
Felker Army Air Field

Weather History for KFAF - September, 2019

Change the Weather History Date:

Tuesday, September 10, 2019

  Actual Average Record
Temperature  
Mean Temperature 75 °F -  
Max Temperature 82 °F 79 °F 90 °F (2016)
Min Temperature 68 °F 65 °F 57 °F (2017)
Cooling Degree Days 10    
Growing Degree Days 25 (Base 50)    
Moisture  
Dew Point 62 °F    
Average Humidity 67    
Maximum Humidity 83    
Minimum Humidity 43    
Precipitation  
Precipitation 0.00 in - - ()
Sea Level Pressure  
Sea Level Pressure 30.27 in    
Wind  
Wind Speed 3 mph ()    
Max Wind Speed 12 mph    
Max Gust Speed -    
Visibility 9.0 miles    
Events      
Averages and records for this station are not official NWS values.
T = Trace of Precipitation, MM = Missing Value Source: Averaged Metar Reports

Daily Weather History Graph

Daily Weather History Graph

Search for Another Location

Airport or City:

Astronomy

Sep. 10, 2019 Rise Set
Actual Time 6:44 AM EDT 7:22 PM EDT
Civil Twilight 6:18 AM EDT 7:48 PM EDT
Nautical Twilight 5:47 AM EDT 8:19 PM EDT
Astronomical Twilight 5:15 AM EDT 8:50 PM EDT
Moon 5:51 PM EDT (9/10) 3:14 AM EDT (9/10)
Length of Visible Light 13h 30m
Length of Day
12h 37m
Waxing Gibbous, 89% of the Moon is Illuminated
Sep 10
Waxing Gibbous
Sep 14
Full
Sep 21
Last Quarter
Sep 28
New
Oct 5
First Quarter

Hourly Weather History & Observations

Time (EDT) Temp. Heat Index Dew Point Humidity Pressure Visibility Wind Dir Wind Speed Gust Speed Precip Events Conditions
12:56 AM 71.6 °F - 63.7 °F 76% 30.22 in 10.0 mi Calm Calm - N/A   Clear
1:56 AM 69.3 °F - 62.8 °F 80% 30.22 in 10.0 mi Calm Calm - N/A   Clear
2:56 AM 69.1 °F - 62.6 °F 80% 30.22 in 9.0 mi Calm Calm - N/A   Clear
3:46 AM 68.0 °F - 62.6 °F 83% 30.23 in 1.2 mi Calm Calm - N/A   Haze
3:51 AM 68.0 °F - 62.6 °F 83% 30.23 in 1.6 mi Calm Calm - N/A   Haze
3:56 AM 68.2 °F - 62.4 °F 82% 30.23 in 4.0 mi Calm Calm - N/A   Haze
4:56 AM 69.8 °F - 63.7 °F 81% 30.24 in 10.0 mi Calm Calm - N/A   Mostly Cloudy
5:56 AM 69.6 °F - 63.5 °F 81% 30.25 in 10.0 mi Calm Calm - N/A   Scattered Clouds
6:56 AM 68.7 °F - 62.2 °F 80% 30.26 in 10.0 mi Calm Calm - N/A   Scattered Clouds
7:56 AM 71.8 °F - 64.9 °F 79% 30.29 in 10.0 mi Calm Calm - N/A   Scattered Clouds
8:56 AM 75.7 °F - 66.0 °F 72% 30.31 in 10.0 mi East 8.1 mph - N/A   Partly Cloudy
9:56 AM 77.9 °F - 61.9 °F 58% 30.32 in 10.0 mi ENE 6.9 mph - N/A   Scattered Clouds
10:56 AM 79.2 °F - 59.9 °F 52% 30.32 in 10.0 mi ESE 11.5 mph - N/A   Partly Cloudy
11:56 AM 81.0 °F 81.7 °F 60.4 °F 50% 30.32 in 10.0 mi East 6.9 mph - N/A   Partly Cloudy
12:56 PM 81.1 °F 81.8 °F 60.1 °F 49% 30.31 in 10.0 mi ENE 9.2 mph - N/A   Scattered Clouds
1:56 PM 82.0 °F 82.5 °F 60.4 °F 48% 30.30 in 10.0 mi East 8.1 mph - N/A   Clear
3:56 PM 82.2 °F 82.0 °F 57.4 °F 43% 30.28 in 10.0 mi SSE 8.1 mph - N/A   Partly Cloudy
4:56 PM 81.7 °F 81.9 °F 58.8 °F 46% 30.28 in 10.0 mi ESE 5.8 mph - N/A   Clear
5:56 PM 80.1 °F 80.9 °F 59.7 °F 50% 30.27 in 10.0 mi East 8.1 mph - N/A   Clear
6:56 PM 77.5 °F - 61.0 °F 57% 30.26 in 10.0 mi East 5.8 mph - N/A   Clear
7:56 PM 75.0 °F - 62.4 °F 65% 30.26 in 10.0 mi East 5.8 mph - N/A   Clear
8:56 PM 73.9 °F - 63.1 °F 69% 30.26 in 10.0 mi ESE 4.6 mph - N/A   Clear
9:56 PM 73.2 °F - 63.7 °F 72% 30.27 in 10.0 mi ESE 4.6 mph - N/A   Clear
10:56 PM 72.5 °F - 63.7 °F 74% 30.27 in 10.0 mi ESE 4.6 mph - N/A   Clear
11:56 PM 71.2 °F - 63.7 °F 77% 30.27 in 10.0 mi SE 3.5 mph - N/A   Clear